Change the Weather History Date:

Wednesday, December 26, 2012

  Actual Average Record
Temperature  
Mean Temperature 56 °F 52 °F  
Max Temperature 70 °F 61 °F 79 °F (1971)
Min Temperature 42 °F 43 °F 14 °F (1983)
Degree Days  
Heating Degree Days 9 13  
Month to date heating degree days 155 283  
Since 1 July heating degree days 386 463  
Cooling Degree Days 0 0  
Month to date cooling degree days 11 9  
Year to date cooling degree days 2919 2624  
Growing Degree Days 6 (Base 50)    
Moisture  
Dew Point 52 °F    
Average Humidity 73    
Maximum Humidity 93    
Minimum Humidity 52    
Precipitation  
Precipitation 0.11 in 0.09 in 0.90 in (1976)
Month to date precipitation 1.30 2.22  
Year to date precipitation 40.66 44.58  
Snow  
Snow 0.00 in - 0.00 in ()
Month to date snowfall 0.0  
Since 1 July snowfall 0.0  
Snow Depth 0.00 in    
Sea Level Pressure  
Sea Level Pressure 29.77 in    
Wind  
Wind Speed 13 mph (SW)    
Max Wind Speed 26 mph    
Max Gust Speed 37 mph    
Visibility 9 miles    
Events Rain    
T = Trace of Precipitation, MM = Missing Value Source: NWS Daily Summary

Daily Weather History Graph

Daily Weather History Graph

Search for Another Location

Airport or City:

Trip Planner

Search our weather history database for the weather conditions in past years. The results will help you decide how hot, cold, wet, or windy it might be!

Date:

Astronomy

Dec. 26, 2012 Rise Set
Actual Time 7:22 AM EST 5:30 PM EST
Civil Twilight 6:55 AM EST 5:57 PM EST
Nautical Twilight 6:25 AM EST 6:27 PM EST
Astronomical Twilight 5:55 AM EST 6:57 PM EST
Moon 4:21 PM EST (12/26) 5:46 AM EST (12/26)
Length of Visible Light 11h 01m
Length of Day
10h 08m
Waxing Gibbous, 97% of the Moon is Illuminated
Dec 26
Waxing Gibbous
Dec 28
Full
Jan 4
Last Quarter
Jan 11
New
Jan 18
First Quarter

Hourly Weather History & Observations

Time (EST) Temp. Windchill Dew Point Humidity Pressure Visibility Wind Dir Wind Speed Gust Speed Precip Events Conditions
12:53 AM 62.1 °F - 59.0 °F 90% 29.86 in 10.0 mi Variable 5.8 mph - N/A   Clear
1:53 AM 63.0 °F - 60.1 °F 90% 29.85 in 10.0 mi South 9.2 mph - N/A   Clear
2:53 AM 63.0 °F - 60.1 °F 90% 29.82 in 10.0 mi South 11.5 mph 16.1 mph N/A   Clear
3:53 AM 62.1 °F - 59.0 °F 90% 29.81 in 10.0 mi South 8.1 mph - N/A   Partly Cloudy
4:53 AM 62.1 °F - 57.9 °F 86% 29.77 in 10.0 mi SSE 9.2 mph - N/A   Clear
5:53 AM 62.1 °F - 59.0 °F 90% 29.75 in 10.0 mi South 11.5 mph - N/A   Clear
6:53 AM 63.0 °F - 59.0 °F 87% 29.73 in 10.0 mi South 11.5 mph 23.0 mph N/A   Scattered Clouds
7:53 AM 63.0 °F - 60.1 °F 90% 29.68 in 10.0 mi South 16.1 mph 25.3 mph N/A   Clear
8:53 AM 63.0 °F - 60.1 °F 90% 29.68 in 8.0 mi South 13.8 mph 21.9 mph N/A   Mostly Cloudy
9:53 AM 66.0 °F - 63.0 °F 90% 29.70 in 5.0 mi SSW 13.8 mph 23.0 mph 0.02 in Rain Light Rain
10:00 AM 66.2 °F - 62.6 °F 88% 29.70 in 6.0 mi SSW 15.0 mph 25.3 mph 0.01 in Rain Light Rain
10:09 AM 64.4 °F - 62.6 °F 94% 29.72 in 2.0 mi WSW 15.0 mph 25.3 mph 0.06 in Rain Rain
10:16 AM 64.4 °F - 62.6 °F 94% 29.71 in 1.2 mi SSW 12.7 mph 19.6 mph 0.09 in Rain Light Rain
10:20 AM 64.4 °F - 62.6 °F 94% 29.71 in 3.0 mi SSW 9.2 mph 19.6 mph 0.09 in Rain Light Rain
10:43 AM 66.2 °F - 64.4 °F 94% 29.71 in 10.0 mi SSW 11.5 mph - 0.09 in   Mostly Cloudy
10:53 AM 66.0 °F - 64.0 °F 93% 29.70 in 10.0 mi SW 13.8 mph - 0.09 in   Mostly Cloudy
11:53 AM 69.1 °F - 57.9 °F 68% 29.69 in 10.0 mi SW 17.3 mph 26.5 mph N/A   Clear
12:53 PM 70.0 °F - 55.0 °F 59% 29.66 in 10.0 mi WSW 13.8 mph 26.5 mph N/A   Mostly Cloudy
1:53 PM 69.1 °F - 53.1 °F 57% 29.65 in 10.0 mi WSW 19.6 mph 26.5 mph N/A   Clear
2:53 PM 66.9 °F - 50.0 °F 54% 29.66 in 10.0 mi WSW 17.3 mph 28.8 mph N/A   Clear
3:53 PM 64.0 °F - 46.0 °F 52% 29.68 in 10.0 mi West 16.1 mph 28.8 mph N/A   Clear
4:53 PM 57.9 °F - 41.0 °F 53% 29.73 in 10.0 mi West 12.7 mph 35.7 mph N/A   Clear
5:53 PM 50.0 °F - 36.0 °F 59% 29.79 in 10.0 mi West 15.0 mph 26.5 mph N/A   Clear
6:53 PM 46.0 °F 39.6 °F 34.0 °F 63% 29.85 in 10.0 mi WNW 15.0 mph 26.5 mph N/A   Clear
7:53 PM 45.0 °F 39.3 °F 34.0 °F 65% 29.88 in 10.0 mi West 11.5 mph 26.5 mph N/A   Partly Cloudy
8:53 PM 44.1 °F 38.1 °F 33.1 °F 65% 29.90 in 10.0 mi West 11.5 mph 24.2 mph N/A   Clear
9:53 PM 43.0 °F 36.0 °F 32.0 °F 65% 29.93 in 10.0 mi West 13.8 mph 20.7 mph N/A   Clear
10:53 PM 42.1 °F 37.1 °F 32.0 °F 67% 29.95 in 10.0 mi West 8.1 mph 21.9 mph N/A   Clear
11:53 PM 42.1 °F 35.7 °F 32.0 °F 67% 29.96 in 10.0 mi West 11.5 mph 20.7 mph N/A   Clear